This demonstration page uses our WeatherBlox Daily Observations layout. Learn more.

Hourly Observations for January 29, 2020

Temp ( °F °C ) Dew Point ( °F °C ) Humidity (%) Winds ( mph kmh ) Pressure ( in mb ) Visibility ( mi km ) Precip ( " mm )
12:15 am 00:15 Clear 31 -0.3 31 -0.8 96 96 Calm 30.16 1021 7 11.26538 0 0
12:35 am 00:35 Clear 31 -0.4 30 -0.9 96 96 Calm 30.15 1021 10 16.0934 0 0
12:55 am 00:55 Clear with Mist and Fog 30 -1.1 29 -1.6 96 96 Calm 30.16 1021 5 8.0467 0 0
1:15 am 01:15 Clear 29 -1.5 28 -2 96 96 SW 5 7 30.17 1022 7 11.26538 0 0
1:35 am 01:35 Clear 29 -1.8 28 -2.3 96 96 SW 3 6 30.16 1021 7 11.26538 0 0
1:55 am 01:55 Cloudy with Mist and Fog 28 -2.4 27 -2.7 98 98 Calm 30.18 1022 1 1.60934 0 0
2:15 am 02:15 Cloudy with Freezing Fog 28 -2.2 27 -2.6 97 97 WSW 3 6 30.18 1022 0.5 0.80467 0 0
2:35 am 02:35 Cloudy with Freezing Fog 28 -2.1 28 -2.5 97 97 Calm 30.18 1022 0.25 0.402335 0 0
2:55 am 02:55 Cloudy with Freezing Fog 28 -2.3 27 -2.7 97 97 Calm 30.18 1022 0.25 0.402335 0 0
3:15 am 03:15 Cloudy with Freezing Fog 27 -2.6 27 -3 97 97 Calm 30.18 1022 0.25 0.402335 0 0
3:35 am 03:35 Cloudy with Mist and Fog 27 -2.8 26 -3.2 97 97 W 5 7 30.19 1022 1 1.60934 0 0
3:55 am 03:55 Cloudy with Mist and Fog 28 -2.3 27 -2.7 97 97 W 6 9 30.19 1022 0.75 1.207005 0 0
4:15 am 04:15 Cloudy with Freezing Fog 28 -2.1 28 -2.5 97 97 W 6 9 30.19 1022 0.5 0.80467 0 0
4:35 am 04:35 Cloudy with Freezing Fog 29 -1.9 28 -2.2 98 98 W 7 11 30.18 1022 0.5 0.80467 0 0
4:55 am 04:55 Cloudy with Freezing Fog 30 -1.1 29 -1.5 97 97 W 6 9 30.18 1022 0.25 0.402335 0 0
5:15 am 05:15 Cloudy with Freezing Fog 31 -0.7 30 -1.1 97 97 W 6 9 30.17 1022 0.5 0.80467 0 0
5:35 am 05:35 Cloudy 31 -0.5 30 -1 96 96 WNW 3 6 30.17 1022 7 11.26538 0 0
5:55 am 05:55 Cloudy 31 -0.5 31 -0.8 98 98 W 5 7 30.17 1022 10 16.0934 0 0
6:15 am 06:15 Cloudy 31 -0.5 31 -0.7 99 99 Calm 30.17 1022 10 16.0934 0 0
6:35 am 06:35 Cloudy 31 -0.5 31 -0.8 98 98 W 3 6 30.18 1022 10 16.0934 0 0
6:55 am 06:55 Cloudy 31 -0.6 30 -1 97 97 Calm 30.18 1022 10 16.0934 0 0
7:15 am 07:15 Cloudy 31 -0.8 30 -1.1 98 98 Calm 30.19 1022 10 16.0934 0 0
7:35 am 07:35 Mostly Cloudy 30 -1.1 29 -1.4 98 98 Calm 30.2 1023 10 16.0934 0 0
7:55 am 07:55 Partly Cloudy 28 -2.1 28 -2.4 98 98 Calm 30.21 1023 10 16.0934 0 0
8:15 am 08:15 Partly Cloudy 29 -1.7 28 -2 98 98 W 3 6 30.21 1023 10 16.0934 0 0
8:35 am 08:35 Sunny 29 -1.8 28 -2.1 98 98 Calm 30.22 1023 10 16.0934 0 0
8:55 am 08:55 Sunny 30 -1 29 -1.4 97 97 Calm 30.21 1023 10 16.0934 0 0
9:15 am 09:15 Sunny 32 -0.1 31 -0.6 96 96 Calm 30.21 1023 10 16.0934 0 0
9:35 am 09:35 Sunny 33 0.4 32 0 97 97 Calm 30.2 1023 10 16.0934 0 0
9:55 am 09:55 Sunny 34 1.3 33 0.6 95 95 Calm 30.19 1022 10 16.0934 0 0
10:15 am 10:15 Sunny 37 2.5 35 1.9 96 96 Calm 30.18 1022 10 16.0934 0 0
10:35 am 10:35 Sunny 38 3.1 36 2.2 94 94 WSW 5 7 30.19 1022 10 16.0934 0 0
10:55 am 10:55 Sunny 39 4.1 35 1.8 85 85 SW 6 9 30.18 1022 10 16.0934 0 0
11:15 am 11:15 Sunny 40 4.5 36 2.2 85 85 WSW 7 11 30.18 1022 10 16.0934 0 0
11:35 am 11:35 Sunny 39 4 36 2 87 87 SW 6 9 30.19 1022 10 16.0934 0 0
11:55 am 11:55 Sunny 40 4.5 36 2.1 85 85 SW 8 13 30.17 1022 10 16.0934 0 0
12:15 pm 12:15 Sunny 40 4.6 36 2.3 85 85 SW 8 13 30.16 1021 10 16.0934 0 0
12:35 pm 12:35 Sunny 41 5 36 2.1 82 82 SW 9 15 30.15 1021 10 16.0934 0 0
12:55 pm 12:55 Sunny 41 5 35 1.5 78 78 SW 7 11 30.14 1021 10 16.0934 0 0
1:15 pm 13:15 Sunny 42 5.5 36 2 78 78 SSW 7 11 30.12 1020 10 16.0934 0 0
1:35 pm 13:35 Sunny 42 5.6 35 1.5 75 75 SSW 7 11 30.11 1020 10 16.0934 0 0
1:55 pm 13:55 Sunny 42 5.5 35 1.5 76 76 SSW 9 15 30.11 1020 10 16.0934 0 0
2:15 pm 14:15 Sunny 42 5.5 35 1.7 77 77 SSW 8 13 30.11 1020 10 16.0934 0 0
2:35 pm 14:35 Partly Cloudy 42 5.5 36 2.1 79 79 SSW 8 13 30.11 1020 10 16.0934 0 0
2:55 pm 14:55 Partly Cloudy 41 5.2 36 2 80 80 SSW 8 13 30.11 1020 10 16.0934 0 0
3:15 pm 15:15 Sunny 41 5 36 2.3 83 83 SW 5 7 30.12 1020 10 16.0934 0 0
3:35 pm 15:35 Partly Cloudy 41 5.1 37 2.5 83 83 WSW 6 9 30.11 1020 10 16.0934 0 0
3:55 pm 15:55 Mostly Cloudy 41 5.2 37 2.5 83 83 SW 7 11 30.11 1020 10 16.0934 0 0
4:15 pm 16:15 Mostly Cloudy 41 5.1 36 2.2 82 82 SW 6 9 30.11 1020 10 16.0934 0 0
4:35 pm 16:35 Partly Cloudy 41 4.8 36 2 82 82 SSW 3 6 30.11 1020 10 16.0934 0 0
4:55 pm 16:55 Mostly Cloudy 40 4.7 36 2.2 84 84 SSW 5 7 30.11 1020 10 16.0934 0 0
5:15 pm 17:15 Cloudy 40 4.5 36 2 84 84 S 5 7 30.11 1020 10 16.0934 0 0
5:35 pm 17:35 Cloudy 39 4 35 1.8 86 86 S 6 9 30.12 1020 10 16.0934 0 0
5:55 pm 17:55 Mostly Cloudy 38 3.3 35 1.4 88 88 SSW 6 9 30.12 1020 10 16.0934 0 0
6:15 pm 18:15 Partly Cloudy 37 2.8 34 1.1 89 89 S 5 7 30.13 1020 10 16.0934 0 0
6:35 pm 18:35 Partly Cloudy 37 2.6 34 1.1 90 90 S 5 7 30.13 1020 10 16.0934 0 0
6:55 pm 18:55 Partly Cloudy 37 2.5 34 1.3 92 92 S 6 9 30.13 1020 10 16.0934 0 0
7:15 pm 19:15 Mostly Cloudy 36 2.4 34 1.2 92 92 S 3 6 30.14 1021 10 16.0934 0 0
7:35 pm 19:35 Cloudy 36 2.2 34 1.1 93 93 S 5 7 30.14 1021 10 16.0934 0 0
7:55 pm 19:55 Cloudy 36 2.2 34 1 92 92 SSW 3 6 30.14 1021 10 16.0934 0 0
8:15 pm 20:15 Cloudy 36 2 34 1 93 93 Calm 30.15 1021 10 16.0934 0 0
8:35 pm 20:35 Cloudy 35 1.5 33 0.6 94 94 S 3 6 30.15 1021 10 16.0934 0 0
8:55 pm 20:55 Cloudy 35 1.5 33 0.7 94 94 S 5 7 30.15 1021 10 16.0934 0 0
9:15 pm 21:15 Cloudy 35 1.7 33 0.7 93 93 SSW 5 7 30.15 1021 10 16.0934 0 0
9:35 pm 21:35 Mostly Cloudy 35 1.7 33 0.7 93 93 S 7 11 30.15 1021 10 16.0934 0 0
9:55 pm 21:55 Partly Cloudy 34 1.2 32 0.2 93 93 S 6 9 30.15 1021 10 16.0934 0 0
10:15 pm 22:15 Clear 34 1.1 33 0.3 94 94 SSE 5 7 30.14 1021 10 16.0934 0 0
10:35 pm 22:35 Partly Cloudy 34 1.1 33 0.4 95 95 Calm 30.14 1021 10 16.0934 0 0
10:55 pm 22:55 Mostly Cloudy 34 1 32 0.2 94 94 S 3 6 30.14 1021 10 16.0934 0 0
11:15 pm 23:15 Mostly Cloudy 34 1 33 0.3 95 95 S 3 6 30.14 1021 10 16.0934 0 0
11:35 pm 23:35 Cloudy 34 1 32 0.2 94 94 Calm 30.14 1021 10 16.0934 0 0
11:55 pm 23:55 Cloudy 33 0.7 32 0 95 95 SSE 3 6 30.14 1021 10 16.0934 0 0

Powered by AerisWeather